Wind_Speed
17 17 18 18 19 20 20 20 20 20 21 21 21 21 21 21 21 21 22 22 22 23 22 22 22 21 20 20 20 20 20 20 20 20 21 21 20 20
18 18 18 18 20 21 21 21 21 22 21 21 22 22 22 22 23 23 23 22 23 23 22 22 23 22 22 21 21 22 22 21 22 22 22 23 22 22
20 20 20 20 21 21 22 23 24 23 22 22 22 22 23 23 23 24 24 24 24 23 23 23 23 23 23 23 23 23 23 23 23 24 24 24 24 24
21 21 21 22 22 22 22 23 24 24 24 23 24 24 24 25 25 25 25 24 24 24 24 25 24 24 24 24 24 24 25 24 25 25 25 26 25 25
21 22 23 22 22 22 22 23 24 25 25 25 25 25 26 27 27 27 26 26 26 26 25 26 26 25 25 26 26 26 26 26 26 27 26 26 27 27
22 23 23 23 23 23 23 24 25 26 26 26 26 26 27 28 28 28 27 27 27 27 27 27 27 27 28 28 27 27 27 27 28 28 28 27 28 27
23 23 24 24 24 25 25 25 26 27 27 27 27 27 28 28 28 28 28 28 28 28 29 29 29 28 28 28 29 29 29 28 29 29 29 28 28 28
24 24 24 25 25 25 26 27 28 28 28 27 27 27 28 28 29 29 30 29 29 29 30 30 30 29 29 29 29 30 30 30 30 29 29 29 29 29
24 24 25 26 26 26 27 28 28 28 28 28 28 28 28 29 29 30 30 30 30 30 31 31 31 31 30 30 30 30 31 31 30 30 29 29 29 29
24 25 25 26 27 27 27 27 27 27 27 28 29 29 29 30 30 30 30 30 31 31 31 31 31 31 31 31 31 30 31 31 31 31 31 31 30 30
26 27 27 27 28 28 28 28 27 27 28 28 29 29 29 30 30 30 30 30 30 31 31 31 31 31 31 30 30 30 30 30 30 30 30 31 31 30
28 28 29 29 29 29 28 28 27 27 28 28 28 29 30 29 29 30 31 31 31 31 31 32 32 32 31 31 30 30 30 30 29 29 29 30 29 29
28 28 29 29 28 29 28 27 26 26 27 28 29 30 30 29 29 30 30 31 32 32 32 33 32 32 32 32 31 31 30 31 30 30 30 30 30 29
29 29 28 28 29 29 28 28 27 27 27 27 27 28 29 29 30 30 31 31 32 32 32 32 31 31 31 31 31 31 31 31 31 31 31 31 31 30
29 29 29 29 29 28 28 28 27 27 28 28 28 29 29 30 30 31 31 30 31 31 32 31 30 30 30 29 29 30 30 31 31 31 30 30 30 30
30 29 29 29 29 28 28 28 28 28 28 28 28 29 29 30 30 30 30 30 30 30 30 30 29 29 29 29 29 30 30 31 31 31 31 30 30 29
29 29 29 29 30 29 28 28 28 28 27 28 28 28 28 29 29 29 29 29 29 29 29 29 29 30 30 30 30 30 30 30 30 30 29 29 28 28
30 29 28 28 28 27 27 27 27 27 27 27 27 27 27 27 28 29 29 29 29 29 29 29 29 29 29 29 29 29 29 29 29 29 28 28 28 28
30 30 29 28 28 27 26 26 26 26 26 26 27 27 27 27 27 27 28 28 28 28 27 27 27 28 28 27 27 28 27 28 28 27 27 27 27 28
29 29 28 28 27 27 26 25 25 25 25 26 26 26 26 27 27 26 26 27 27 26 25 25 25 26 26 25 25 25 26 27 27 27 27 27 27 27
28 28 27 27 26 26 26 25 25 25 25 25 25 25 26 26 26 26 26 25 25 24 24 24 25 24 25 24 24 24 25 26 26 27 27 27 27 27
28 27 27 26 26 26 25 26 26 26 26 26 25 25 26 26 26 26 25 24 23 22 23 23 24 24 25 25 24 24 24 25 25 26 26 26 26 25
26 26 26 26 26 26 26 26 26 26 26 26 26 25 25 25 25 24 24 23 23 23 23 23 23 23 24 25 24 23 23 23 24 24 25 25 24 24
Wind_Direction
284 282 281 279 276 273 271 270 269 266 264 265 265 265 264 264 265 267 269 268 266 266 266 265 264 267 268 268 269 271 273 272 270 269 268 268 268 269
285 283 282 281 281 277 273 271 270 270 269 267 265 266 266 267 267 267 268 266 267 268 268 268 267 267 268 268 270 271 272 272 270 268 268 267 268 269
286 285 284 282 279 277 275 272 270 269 270 268 268 268 268 267 268 269 269 269 267 267 270 270 268 266 267 268 270 270 271 271 269 268 267 266 267 267
284 284 284 283 280 277 275 272 271 270 269 269 269 268 269 268 267 268 268 268 267 267 270 270 268 268 268 269 270 269 270 270 269 269 269 268 267 267
285 283 282 281 280 277 276 274 272 272 271 269 268 267 267 269 268 267 267 267 267 267 268 268 267 268 269 269 269 269 269 269 269 269 270 268 267 267
283 283 281 280 279 277 276 275 274 274 274 272 269 268 268 268 269 268 268 268 269 269 270 270 269 268 270 269 269 269 269 269 269 269 270 269 267 267
287 286 283 280 280 278 277 276 275 276 276 274 272 270 269 269 269 269 269 268 267 269 270 271 272 270 269 268 268 269 268 268 269 268 268 267 267 267
290 288 285 283 283 281 279 279 278 278 277 276 274 272 270 270 269 269 270 270 269 269 269 270 270 271 271 269 269 269 268 268 268 267 267 266 266 266
292 292 289 288 287 285 284 282 278 277 275 274 274 273 272 272 271 271 270 271 271 270 269 268 269 271 272 271 272 270 268 267 267 267 266 266 266 266
293 293 291 289 287 287 287 282 279 277 275 275 275 274 273 273 272 272 272 271 272 272 271 271 269 270 270 270 270 268 267 267 266 266 266 265 265 265
293 292 290 288 288 287 287 284 281 277 275 274 275 274 274 273 274 274 274 273 273 272 271 271 270 270 269 269 269 269 268 268 267 267 266 267 266 266
292 291 289 288 288 287 286 285 283 279 274 273 274 275 275 276 278 277 276 273 272 272 272 272 271 271 270 269 268 267 267 267 267 266 266 267 268 268
294 293 290 289 289 288 286 284 282 281 276 275 276 277 276 276 277 278 277 276 274 273 272 272 271 271 270 267 266 266 266 266 266 264 265 267 267 267
296 296 293 291 291 288 284 282 282 281 279 278 279 279 279 278 277 277 277 277 276 274 273 272 271 270 268 267 266 266 265 265 265 265 266 267 268 268
297 297 296 295 293 289 286 284 283 282 281 280 279 279 279 278 278 278 277 278 278 276 273 271 270 270 268 267 266 266 265 264 264 264 265 267 268 268
296 297 297 295 293 289 285 284 284 283 283 282 282 281 280 279 279 278 277 276 277 276 274 272 271 270 269 268 268 268 266 265 264 265 265 267 267 267
299 299 297 295 294 291 287 285 283 283 283 284 285 283 281 280 280 279 278 277 277 275 273 272 271 270 269 268 268 267 266 266 265 265 265 266 266 265
298 298 299 298 297 294 291 287 285 283 283 284 285 285 284 283 282 281 279 278 276 275 273 272 271 270 270 269 269 268 267 267 266 265 264 264 264 264
298 297 297 298 298 296 293 289 287 285 284 285 284 285 285 284 284 283 281 279 278 276 274 273 271 269 269 270 270 268 267 267 266 266 266 266 265 265
300 299 299 299 299 297 294 293 291 289 288 287 286 286 286 286 285 283 281 280 279 276 273 272 271 270 270 269 270 267 267 267 267 266 266 266 266 266
300 301 300 299 299 297 295 293 291 290 290 288 288 289 289 288 287 286 283 281 278 275 274 272 272 271 270 269 271 270 270 269 267 267 266 266 266 266
299 299 299 299 298 297 295 293 292 290 290 289 289 289 288 287 287 286 285 282 279 276 274 273 273 272 271 271 273 273 272 272 270 269 268 267 266 265
300 300 300 300 298 296 294 293 292 292 291 290 289 288 287 288 286 285 284 283 280 277 275 273 272 272 272 273 274 274 274 273 272 272 270 268 268 267
Height
5836 5836 5835 5834 5833 5833 5832 5832 5832 5832 5832 5832 5832 5831 5832 5832 5832 5832 5832 5832 5833 5833 5833 5834 5834 5834 5835 5834 5834 5834 5834 5834 5834 5834 5833 5833 5834 5833
5831 5831 5830 5829 5828 5827 5827 5826 5826 5826 5826 5826 5826 5826 5826 5826 5826 5826 5826 5826 5826 5826 5827 5827 5828 5828 5828 5828 5828 5828 5828 5828 5828 5828 5828 5828 5828 5828
5826 5825 5825 5823 5822 5821 5821 5820 5820 5820 5820 5819 5819 5819 5819 5819 5819 5819 5820 5820 5820 5820 5820 5820 5821 5821 5821 5821 5822 5822 5822 5821 5821 5821 5821 5821 5821 5821
5821 5820 5819 5817 5816 5815 5814 5814 5813 5813 5813 5813 5813 5812 5812 5812 5812 5812 5812 5812 5813 5813 5813 5813 5813 5814 5814 5814 5815 5815 5815 5815 5815 5814 5814 5815 5815 5814
5815 5814 5812 5811 5810 5809 5808 5807 5807 5806 5806 5806 5806 5805 5805 5805 5805 5805 5805 5805 5805 5805 5805 5805 5805 5806 5806 5807 5807 5807 5808 5807 5807 5807 5807 5807 5807 5807
5809 5807 5806 5805 5804 5802 5801 5800 5800 5799 5798 5798 5798 5798 5797 5797 5797 5796 5797 5797 5797 5797 5797 5797 5797 5797 5797 5798 5799 5799 5799 5799 5799 5799 5799 5799 5799 5799
5802 5800 5799 5798 5796 5795 5794 5793 5792 5792 5791 5790 5790 5789 5789 5789 5789 5788 5788 5788 5789 5789 5789 5789 5789 5789 5788 5789 5789 5789 5790 5790 5790 5790 5790 5790 5790 5790
5795 5793 5792 5790 5789 5787 5786 5785 5784 5783 5782 5782 5781 5781 5781 5781 5780 5780 5780 5780 5780 5781 5780 5780 5780 5779 5779 5780 5780 5780 5780 5781 5781 5781 5781 5781 5781 5782
5788 5786 5785 5783 5782 5780 5778 5777 5775 5774 5774 5773 5773 5772 5772 5772 5772 5771 5771 5770 5771 5771 5770 5770 5770 5770 5770 5770 5770 5770 5771 5771 5772 5772 5772 5772 5772 5773
5781 5779 5778 5776 5774 5772 5770 5768 5767 5766 5765 5764 5764 5763 5763 5762 5762 5762 5761 5761 5761 5761 5761 5761 5761 5761 5760 5760 5760 5761 5761 5761 5762 5762 5763 5763 5763 5764
5774 5772 5770 5768 5766 5763 5761 5760 5758 5757 5756 5755 5755 5754 5753 5753 5753 5753 5752 5751 5751 5751 5751 5751 5751 5751 5751 5751 5751 5751 5751 5752 5752 5753 5753 5754 5754 5755
5767 5764 5761 5759 5757 5755 5753 5751 5750 5748 5747 5747 5746 5745 5744 5743 5743 5742 5742 5741 5741 5741 5741 5741 5741 5740 5741 5741 5741 5741 5742 5743 5743 5744 5744 5745 5745 5746
5758 5756 5753 5751 5748 5746 5744 5742 5741 5740 5739 5738 5737 5736 5735 5734 5733 5733 5732 5731 5731 5731 5731 5731 5730 5730 5731 5731 5731 5732 5732 5733 5734 5735 5735 5736 5736 5737
5750 5747 5745 5742 5740 5738 5736 5734 5733 5731 5730 5729 5728 5727 5726 5725 5724 5723 5722 5721 5721 5721 5720 5720 5720 5720 5721 5721 5722 5722 5723 5724 5724 5725 5726 5726 5727 5728
5742 5739 5736 5734 5731 5729 5728 5726 5724 5722 5721 5720 5719 5718 5717 5716 5715 5714 5713 5712 5711 5710 5710 5710 5710 5711 5711 5712 5713 5713 5714 5715 5715 5716 5716 5717 5718 5719
5734 5731 5728 5725 5723 5720 5719 5717 5715 5714 5713 5711 5710 5708 5707 5706 5705 5705 5704 5703 5703 5702 5701 5700 5701 5701 5702 5703 5703 5704 5705 5705 5706 5706 5707 5708 5709 5709
5726 5723 5720 5718 5715 5712 5710 5708 5707 5705 5704 5702 5701 5699 5698 5697 5696 5695 5695 5694 5694 5693 5692 5692 5692 5692 5693 5693 5694 5694 5695 5696 5697 5697 5698 5699 5700 5700
5717 5715 5712 5709 5706 5704 5701 5699 5698 5696 5695 5693 5692 5691 5690 5688 5687 5686 5685 5684 5684 5684 5683 5683 5683 5683 5684 5684 5685 5685 5686 5687 5687 5688 5689 5690 5691 5691
5709 5706 5703 5701 5698 5695 5693 5691 5689 5687 5686 5685 5683 5682 5681 5679 5678 5677 5676 5675 5675 5674 5674 5674 5674 5674 5675 5676 5676 5676 5677 5677 5678 5679 5679 5680 5681 5682
5700 5698 5695 5692 5690 5687 5685 5683 5681 5679 5678 5676 5674 5673 5672 5670 5669 5668 5667 5666 5666 5665 5665 5665 5665 5666 5666 5667 5668 5668 5668 5668 5669 5670 5670 5671 5671 5672
5692 5689 5687 5684 5682 5679 5677 5675 5673 5671 5669 5668 5666 5664 5663 5662 5660 5659 5658 5658 5657 5657 5657 5657 5657 5658 5658 5658 5659 5659 5660 5660 5660 5661 5661 5662 5662 5663
5684 5681 5678 5676 5674 5671 5669 5667 5665 5663 5661 5659 5658 5656 5655 5653 5652 5651 5650 5649 5649 5649 5649 5649 5649 5649 5649 5650 5650 5651 5651 5651 5651 5651 5652 5652 5653 5653
5676 5673 5670 5668 5665 5663 5660 5658 5656 5654 5652 5651 5649 5648 5646 5645 5644 5643 5642 5642 5641 5641 5641 5641 5641 5641 5641 5641 5642 5642 5643 5643 5643 5643 5643 5643 5644 5644